Location: Dvur Kralove nad Labem
(50.4330°N, 15.8170°E)
Time: 17:30:24
(UTC+01:00)

ISS - Pass Details

Date: 11 November 2018
Orbit: 401 x 408 km, 51.6° (Epoch: 20 November)

Event Time Altitude Azimuth Distance (km) Brightness Sun altitude
Exits shadow 05:08:34 48° 213° (SSW) 536 -3.5 -18.4°
Maximum altitude 05:08:40 48° 206° (SSW) 534 -3.4 -18.4°
Drops below altitude 10° 05:11:51 10° 130° (SE) 1,460 -0.2 -17.9°
Sets 05:13:57 0° 125° (SE) 2,319 1.1 -17.5°
